#timestamp,LO_Frequency,Hit,StdDev 
1517529615.3,286046998.9,N
1517529635.1,286046998.3,N
1517529655.9,286046998.1,N
1517529675.7,286046999.7,N
1517529695.5,286046998.2,N
1517529715.4,286046999.9,N
1517529735.2,286047000.1,N
1517529755.1,286047002.8,N
1517529756.0,286047002.8,N
1517529775.8,286047000.1,N
1517529795.6,286047000.8,N
1517529815.5,286046998.9,N
1517529835.3,286046998.8,N
1517529855.2,286046998.4,N
1517529875.9,286046998.7,N
1517529895.7,286047000.7,N
1517529915.6,286046998.3,N
1517529935.4,286046999.1,N
1517529955.3,286046999.5,N
1517529975.1,286046999.3,N
1517529995.2,286046999.4,N
1517530015.1,286046999.4,N
1517530016.0,286046999.4,N
1517530035.8,286046999.3,N
1517530055.7,286046996.6,N
1517530075.5,286046997.6,N
1517530095.3,286046997.8,N
1517530115.2,286046997.8,N
1517530135.0,286046995.6,Y
1517530135.9,286046995.6,P
1517530155.8,286046997.3,N
1517530175.6,286046997.3,N
1517530195.4,286046997.9,N
1517530215.3,286046998.7,N
1517530235.1,286046998.6,N
1517530255.8,286046999.0,N
1517530275.7,286046999.3,N
1517530295.5,286046999.3,N
1517530315.4,286046997.8,N
1517530335.2,286046996.6,Y
1517530355.0,286046999.2,P
1517530355.9,286046999.2,N
1517530375.8,286046998.2,P
1517530395.6,286046999.0,N
1517530415.5,286047000.8,N
1517530435.3,286046998.7,N
1517530455.1,286046998.1,N
1517530475.9,286046998.1,N
1517530495.7,286047000.7,N
1517530515.5,286046998.2,N
1517530535.4,286046998.8,N
1517530555.2,286047000.4,N
1517530575.1,286047000.6,N
1517530576.0,286047000.6,N
1517530595.8,286047000.4,N
1517530615.6,286046999.8,N
1517530635.5,286046999.9,N
1517530655.3,286047002.8,N
1517530675.2,286047002.2,N
1517530695.9,286047001.5,N
1517530715.7,286047003.7,N
1517530735.6,286047003.9,N
1517530755.4,286047003.3,N
1517530775.2,286047003.4,N
1517530795.1,286047003.9,N
1517530796.0,286047003.9,N
1517530815.8,286047003.7,N
1517530835.7,286047001.6,N
1517530855.5,286047001.7,N
1517530875.3,286046999.7,N
1517530895.2,286047002.1,N
1517530915.0,286047001.9,N
1517530915.9,286047001.9,N
1517530935.8,286047004.0,N
1517530955.6,286047001.8,N
1517530975.4,286047004.1,N
1517530995.3,286047004.0,N
1517531015.1,286047003.4,N
1517531035.8,286047004.0,N
1517531055.7,286047001.9,N
1517531075.5,286047001.5,N
1517531095.4,286047004.3,N
1517531115.2,286047001.5,N
1517531135.0,286047001.5,N
1517531135.9,286047001.5,N
1517531155.8,286047003.3,N
1517531175.6,286047005.9,Y
1517531195.5,286047002.2,P
1517531215.3,286047000.5,N
1517531235.1,286047000.2,N
1517531255.9,286047000.6,N
1517531275.7,286047000.3,N
1517531295.5,286047002.8,N
1517531315.4,286047002.2,N
1517531335.2,286047001.5,N
1517531355.1,286047002.5,N
1517531356.0,286047002.5,N
1517531375.8,286047002.4,N
1517531395.6,286047004.0,Y
1517531415.5,286047002.3,P
1517531435.3,286047001.0,P
1517531455.1,286047002.6,P
1517531475.9,286046998.3,N
1517531495.7,286046998.4,N
1517531515.6,286046999.8,N
1517531535.4,286047001.0,N
1517531555.2,286047002.8,N
1517531575.1,286047002.8,N
1517531576.0,286047002.8,N
1517531595.8,286047000.6,N
1517531615.7,286046999.5,N
1517531635.5,286046998.8,N
1517531655.3,286046998.7,N
1517531675.2,286047000.5,N
1517531695.9,286046996.6,N
1517531715.7,286046999.5,N
1517531735.6,286046999.3,N
1517531755.4,286046999.8,N
1517531775.2,286047001.0,N
1517531795.1,286046998.1,N
1517531796.0,286046998.1,N
1517531815.8,286047001.0,N
1517531835.7,286047000.6,N
1517531855.5,286047000.2,N
1517531875.3,286047002.5,N
1517531895.2,286047002.6,N
1517531915.0,286047002.3,N
1517531915.9,286047002.3,N
1517531935.8,286047004.4,N
1517531955.6,286047001.7,N
1517531975.4,286047002.6,N
1517531995.3,286047001.9,N
1517532015.1,286047004.2,N
1517532035.8,286047001.5,N
1517532055.7,286047000.4,N
1517532075.5,286047002.5,N
1517532095.4,286047001.6,N
1517532115.2,286047001.6,N
1517532135.0,286047000.1,N
1517532135.9,286047000.1,N
1517532155.8,286047001.1,N
1517532175.6,286046998.8,N
1517532195.4,286046998.2,N
1517532215.3,286047002.5,N
1517532235.1,286047002.8,N
1517532255.9,286047002.6,N
1517532275.7,286047000.4,N
1517532295.5,286046999.9,N
1517532315.4,286047000.9,N
1517532335.2,286047001.0,N
1517532355.0,286047000.8,N
1517532356.0,286047000.8,N
1517532375.8,286047000.8,N
1517532395.6,286047001.2,N
1517532415.5,286046998.1,N
1517532435.3,286047001.1,N
1517532455.1,286047000.3,N
1517532475.9,286046999.7,N
1517532495.7,286046999.7,N
1517532515.6,286046999.9,N
1517532535.4,286047000.4,N
1517532555.2,286047000.4,N
1517532575.1,286047000.9,N
1517532576.0,286047000.9,N
1517532595.8,286047002.8,N
1517532615.6,286047001.5,N
1517532635.5,286047002.7,N
1517532655.3,286047002.1,N
1517532675.2,286046999.8,N
1517532695.9,286047001.8,N
1517532715.7,286047001.4,N
1517532735.6,286047003.1,N
1517532755.4,286047001.3,N
1517532775.2,286047002.3,N
1517532795.1,286047000.9,N
1517532796.0,286047000.9,N
1517532815.8,286047002.6,N
1517532835.7,286047002.6,N
1517532855.5,286047002.3,N
1517532875.3,286046999.7,N
1517532895.2,286047002.4,N
1517532915.0,286047002.6,N
1517532915.9,286047002.6,N
1517532935.8,286047001.9,N
1517532955.6,286047000.1,N
1517532975.4,286047000.4,N
1517532995.3,286047002.4,N
1517533015.1,286047002.4,N
1517533035.8,286046999.8,N
1517533055.7,286047000.0,N
1517533075.5,286047000.9,N
1517533095.4,286047000.5,N
1517533115.2,286047000.7,N
1517533135.0,286046998.6,N
1517533135.9,286046998.6,N
1517533155.8,286046998.3,N
1517533175.6,286047000.5,N
1517533195.4,286046999.9,N
